Regional Weather Roundup
Issued by NWS Upton, NY

Current Version | Previous Version | Text Only | Print | Product List | Glossary On
Versions: 1 2 3 4 5 6 7 8 9 10 11 12 13 14 15 16 17 18 19 20 21 22 23 24 25 26 27
000
ASUS41 KOKX 242108
RWROKX

REGIONAL WEATHER ROUNDUP
NATIONAL WEATHER SERVICE NEW YORK NY
500 PM EDT FRI MAR 24 2017

NOTE: "FAIR" INDICATES FEW OR NO CLOUDS BELOW 12,000 FEET WITH NO
SIGNIFICANT WEATHER AND/OR OBSTRUCTIONS TO VISIBILITY.

NYZ071-072-176-178-NJZ106-104-242200-
NEW YORK CITY METRO AREA

CITY           SKY/WX    TMP DP  RH WIND       PRES   REMARKS
Central Park   CLOUDY    54  31  41 VRB3      30.16F
Wall St Helipt PTCLDY    54  34  47 W10       30.16F
LaGuardia APRT CLOUDY    55  31  39 SW14G22   30.14F
Kennedy INTL   PTSUNNY   49  38  65 S18       30.17F
Breezy Point     N/A     52 N/A N/A SW6         N/A
Newark/Liberty PTSUNNY   58  32  37 SW17G25   30.14F
Teterboro      CLOUDY    55  32  41 SW9       30.13F
$$

NYZ177-179-078>081-242200-
LONG ISLAND NEW YORK

CITY           SKY/WX    TMP DP  RH WIND       PRES   REMARKS
Jones Beach      N/A     45 N/A N/A SW15G25     N/A
Matinecock PT    N/A     50 N/A N/A SW14        N/A
Farmingdale    MOSUNNY   48  33  56 SW21G28   30.17F
MacArthur/ISP  PTSUNNY   46  32  58 SW18G25   30.16F
Shirley        CLOUDY    45  32  60 SW20G29   30.18F
Westhampton    CLOUDY    46  30  53 SW14G24   30.19F
East Hampton   CLOUDY    45  31  58 SW12G17   30.17F
Montauk          N/A     45  36  70 SW15G25   30.18F
$$

NYZ052-065-067-242200-
HUDSON VALLEY

CITY           SKY/WX    TMP DP  RH WIND       PRES   REMARKS
White Plains   CLOUDY    50  29  44 SW10G17   30.13F
Newburgh       PTSUNNY   43  36  75 W7        30.15F
Montgomery     CLOUDY    45  33  63 SW10      30.13F
Poughkeepsie   CLOUDY    43  32  65 W8        30.14F
Albany         CLOUDY    40  30  67 S15G28    30.06F WCI  32
$$

NJZ001-105-106-008-010-013-015-019>022-104-242200-
NEW JERSEY

CITY           SKY/WX    TMP DP  RH WIND       PRES   REMARKS
Newark/Liberty PTSUNNY   58  32  37 SW17G25   30.14F
Teterboro      CLOUDY    55  32  41 SW9       30.13F
Caldwell       CLOUDY    54  31  41 VRB7      30.14F
Somerville     PTSUNNY   56  34  43 VRB6      30.13F
Linden           N/A     58  31  35 W9        30.14F
Sussex         CLOUDY    48  32  53 SW7       30.13F
Andover          N/A     49  31  49 SW12G20   30.13F
Trenton        CLOUDY    56  35  45 SW15G25   30.16F
Millville      SUNNY     57  33  40 SW12G21   30.21F
Atlantic City  CLOUDY    57  34  41 S15G23    30.21F
Wrightstown    MOSUNNY   60  34  38 SW18      30.13F
Toms River     SUNNY     60  33  36 SW22G29   30.17F
Belmar         SUNNY     60  31  33 SW16G23   30.16F
$$

PAZ047>061-062-071-242200-
EASTERN PENNSYLVANIA

CITY           SKY/WX    TMP DP  RH WIND       PRES   REMARKS
Philadelphia   CLOUDY    58  33  39 SW20      30.19F
Allentown      CLOUDY    55  34  45 SW9       30.14F
Scranton       MOSUNNY   50  36  58 SW12      30.09F
$$

CTZ002-004>006-009-010-012-RIZ004-006-007-MAZ004-011-015-242200-
SOUTHERN NEW ENGLAND
 IN CT

CITY           SKY/WX    TMP DP  RH WIND       PRES   REMARKS
Bradley INTL   PTSUNNY   44  29  55 SW12      30.13F
Hartford       CLOUDY    46  29  51 S9        30.15F
Danbury        CLOUDY    46  29  51 SW9       30.15F
Wtrbury/Oxford PTSUNNY   45  27  49 SW9       30.15S
Bridgeport     CLOUDY    46  32  58 SW7       30.17F
Meriden        CLOUDY    47  29  49 S7        30.16S
New Haven      CLOUDY    43  31  62 SW7       30.17F
Chester        NOT AVBL
Groton         CLOUDY    45  31  58 SW15      30.18F
Wilimantic     CLOUDY    46  27  47 S13G23    30.15F

 IN RI

CITY           SKY/WX    TMP DP  RH WIND       PRES   REMARKS
Providence     CLOUDY    45  28  51 SW14G24   30.17F
Block Island   CLOUDY    44  35  70 SW23G31   30.17F
Westerly       CLOUDY    46  34  62 SW15G23   30.19F
 IN MA

CITY           SKY/WX    TMP DP  RH WIND       PRES   REMARKS
Boston         CLOUDY    41  30  65 SW18      30.13F
Worcester      CLOUDY    38  25  59 SW17      30.09F WCI  28
Westfield      CLOUDY    41  30  65 S16       30.10F
Provincetown   CLOUDY    39  34  82 S15G22    30.18F WCI  31
Nantucket      CLOUDY    42  36  79 S17       30.21F
$$

ANZ330-335-338-340-345-350-353-355-242200-
COASTAL MARINE OBSERVATIONS


STATION/POSITION TIME  SKY/WX   TEMP    WIND        PRES    VSBY  WAVE
                                AIR SEA DIR/SP/G                  HT/PER
                 (UTC)          (F)     (DEG/KT/KT) (MB)    (MI)  (FT/S)
NY HARB ENTRANCE 1950            44 41  200/ 23/ 29 1021.9          5/ 6
20 S FIRE ISLAND 2050            44 40  200/ 21/ 25 1021.5          6/ 6
GREAT SOUTH BAY  NOT AVBL
23 SSW MONTAUK P 1950            45 42              1023.4          6/ 6
15 E BARNEGAT LI 2030               43                N/A           6/ 5
HUDSON CANYON    1950            47 45  210/ 19/ 21 1025.8          5/ 6
KINGS POINT      2036            51 39              1020.8
EXECUTION ROCKS  NOT AVBL
CENTRAL LI SOUND 2030            42     220/  8/ 10   N/A           2/ 4
EASTERN LI SOUND NOT AVBL
ROBBINS REEF     2048            55     230/ 14/ 20 1020.9
$$


>>>>>>>>>>>>>>>>>>>>>>>>>>>> KEY <<<<<<<<<<<<<<<<<<<<<<<<<<<
>                                                          <
>     SKY/WX - Sky Condition/Present Weather               <
>     TMP    - Temperature in Fahrenheit                   <
>     DP     - Dew Point in Fahrenheit                     <
>     RH     - Relative Humidity in Percent                <
>     WIND   - Direction (from) and Speed in MPH           <
>     PRES   - Mean Sea Level Pressure (inches of Hg)      <
>     WCI    - Wind Chill Index                            <
>     VSB    - VISIBILITY IN MILES                         <
>     HX     - HEAT INDEX                                  <
>     TC     - TEMPERATURE IN CELSIUS                      <
>     VRB    - VARIABLE WIND DIRECTION                     <
>                                                          <
>>>>>>>>>>>>>>>>>>>>>>>>>>>> KEY <<<<<<<<<<<<<<<<<<<<<<<<<<<




USA.gov is the U.S. government's official web portal to all federal, state and local government web resources and services.